When you browse on this site, cookies collect data to enhance your experience and personalize the content and advertising you see.
Visit our Privacy Policy to learn more. By continuing to use the site, you agree to this use of cookies and data.
  • In Hungary
  • List of Countries
  • For 7 days
  • Water Temperature
  • Weather Map
  • News
  • Weather Widgets
  • user-avatar
    Login

    Hourly Weather Kapfenberg

    Today, 10 December, Tuesday

    Time Temperature Precipitation Wind Pressure Humidity
    00:00 +3°C° 0.1 mm 1 mps 702 mmHg 95%
    01:00 +3°C° 0 mm 1 mps 703 mmHg 95%
    02:00 +3°C° 0.2 mm 1 mps 703 mmHg 95%
    03:00 +2°C° 0.2 mm 2 mps 703 mmHg 95%
    04:00 +2°C° 0.2 mm 2 mps 704 mmHg 96%
    05:00 +2°C° 0.3 mm 2 mps 705 mmHg 95%
    06:00 +2°C° 0.3 mm 2 mps 705 mmHg 95%
    07:00 +2°C° 0.3 mm 2 mps 706 mmHg 95%
    08:00 +2°C° 0.5 mm 2 mps 707 mmHg 92%
    09:00 +1°C° 0.5 mm 3 mps 708 mmHg 89%
    10:00 +2°C° 0.5 mm 3 mps 708 mmHg 87%
    11:00 +1°C° 0.2 mm 4 mps 709 mmHg 82%
    12:00 0°C° 0.2 mm 5 mps 710 mmHg 77%
    13:00 -1°C° 0.2 mm 6 mps 710 mmHg 72%
    14:00 -1°C° 0.1 mm 5 mps 710 mmHg 76%
    15:00 -2°C° 0.1 mm 4 mps 710 mmHg 80%
    16:00 -1°C° 0.1 mm 3 mps 710 mmHg 83%
    17:00 -2°C° 0 mm 3 mps 711 mmHg 85%
    18:00 -2°C° 0 mm 2 mps 711 mmHg 87%
    19:00 -2°C° 0 mm 2 mps 712 mmHg 88%
    20:00 -2°C° 0 mm 2 mps 711 mmHg 89%
    21:00 -3°C° 0 mm 2 mps 711 mmHg 90%
    22:00 -1°C° 0 mm 1 mps 711 mmHg 90%
    23:00 -1°C° 0 mm 1 mps 711 mmHg 90%

    Tomorrow, 11 December, Wednesday

    Time Temperature Precipitation Wind Pressure Humidity
    00:00 -2°C° 0 mm 1 mps 711 mmHg 90%
    01:00 -2°C° 0 mm 1 mps 710 mmHg 90%
    02:00 -2°C° 0 mm 1 mps 710 mmHg 87%
    03:00 -2°C° 0 mm 1 mps 709 mmHg 84%
    04:00 -2°C° 0 mm 1 mps 708 mmHg 81%
    05:00 -2°C° 0 mm 1 mps 708 mmHg 77%
    06:00 -3°C° 0 mm 0 mps 708 mmHg 74%
    07:00 -3°C° 0 mm 0 mps 707 mmHg 70%
    08:00 -1°C° 0 mm 1 mps 707 mmHg 65%
    09:00 0°C° 0 mm 1 mps 707 mmHg 60%
    10:00 +1°C° 0 mm 1 mps 707 mmHg 54%
    11:00 +2°C° 0 mm 1 mps 706 mmHg 51%
    12:00 +3°C° 0 mm 1 mps 705 mmHg 48%
    13:00 +4°C° 0 mm 1 mps 705 mmHg 45%
    14:00 +2°C° 0 mm 1 mps 704 mmHg 51%
    15:00 +1°C° 0 mm 1 mps 703 mmHg 56%
    16:00 -1°C° 0 mm 1 mps 702 mmHg 61%
    17:00 -1°C° 0 mm 1 mps 702 mmHg 62%
    18:00 -2°C° 0 mm 1 mps 702 mmHg 62%
    19:00 -2°C° 0 mm 1 mps 702 mmHg 63%
    20:00 -2°C° 0 mm 1 mps 702 mmHg 63%
    21:00 -2°C° 0 mm 1 mps 701 mmHg 64%
    22:00 -3°C° 0 mm 1 mps 701 mmHg 64%
    23:00 -2°C° 0 mm 1 mps 701 mmHg 62%

    Day after tomorrow, 12 December, Thursday

    Time Temperature Precipitation Wind Pressure Humidity
    00:00 -3°C° 0 mm 0 mps 701 mmHg 60%
    01:00 -3°C° 0 mm 0 mps 700 mmHg 57%
    02:00 -3°C° 0 mm 0 mps 700 mmHg 58%
    03:00 -2°C° 0 mm 0 mps 700 mmHg 58%
    04:00 -2°C° 0 mm 0 mps 699 mmHg 58%
    05:00 -2°C° 0.1 mm 0 mps 699 mmHg 63%
    06:00 -2°C° 0.1 mm 0 mps 699 mmHg 69%
    07:00 -2°C° 0.1 mm 0 mps 700 mmHg 74%
    08:00 0°C° 0.1 mm 1 mps 700 mmHg 75%
    09:00 +1°C° 0.1 mm 1 mps 700 mmHg 76%
    10:00 +2°C° 0.1 mm 1 mps 700 mmHg 77%
    11:00 +3°C° 0.1 mm 1 mps 700 mmHg 75%
    12:00 +3°C° 0.1 mm 1 mps 700 mmHg 73%
    13:00 +4°C° 0.1 mm 1 mps 700 mmHg 71%
    14:00 +3°C° 0.1 mm 1 mps 699 mmHg 76%
    15:00 +2°C° 0.1 mm 1 mps 699 mmHg 82%
    16:00 +1°C° 0.1 mm 1 mps 699 mmHg 87%
    17:00 -1°C° 0 mm 0 mps 699 mmHg 88%
    18:00 -1°C° 0 mm 0 mps 699 mmHg 89%
    19:00 -2°C° 0 mm 0 mps 699 mmHg 91%
    20:00 -2°C° 0 mm 0 mps 698 mmHg 92%
    21:00 -1°C° 0 mm 1 mps 698 mmHg 92%
    22:00 -1°C° 0 mm 1 mps 698 mmHg 93%
    23:00 -1°C° 0 mm 1 mps 697 mmHg 93%

    13 December, Friday

    Time Temperature Precipitation Wind Pressure Humidity
    00:00 -1°C° 0 mm 1 mps 696 mmHg 93%
    01:00 -1°C° 0 mm 1 mps 695 mmHg 93%
    02:00 -4°C° 0 mm 2 mps 694 mmHg 92%
    03:00 -4°C° 0 mm 2 mps 693 mmHg 91%
    04:00 -4°C° 0 mm 2 mps 691 mmHg 90%
    05:00 -4°C° 0 mm 2 mps 690 mmHg 91%
    06:00 -4°C° 0 mm 2 mps 689 mmHg 92%
    07:00 -4°C° 0 mm 2 mps 688 mmHg 92%
    08:00 -4°C° 0 mm 2 mps 688 mmHg 90%
    09:00 -4°C° 0 mm 3 mps 688 mmHg 87%
    10:00 -4°C° 0 mm 3 mps 688 mmHg 85%
    11:00 -2°C° 0.2 mm 2 mps 687 mmHg 82%
    12:00 +1°C° 0.2 mm 1 mps 687 mmHg 80%
    13:00 +1°C° 0.2 mm 1 mps 687 mmHg 77%
    14:00 +1°C° 0 mm 1 mps 687 mmHg 79%
    15:00 +1°C° 0 mm 1 mps 687 mmHg 80%
    16:00 -1°C° 0 mm 0 mps 687 mmHg 82%
    17:00 0°C° 0.6 mm 1 mps 687 mmHg 86%
    18:00 +1°C° 0.6 mm 1 mps 687 mmHg 89%
    19:00 +1°C° 0.6 mm 1 mps 688 mmHg 93%
    20:00 +1°C° 0.4 mm 1 mps 688 mmHg 92%
    21:00 +1°C° 0.4 mm 1 mps 689 mmHg 90%
    22:00 +2°C° 0.4 mm 1 mps 689 mmHg 88%
    23:00 +2°C° 0 mm 1 mps 690 mmHg 88%

    14 December, Saturday

    Time Temperature Precipitation Wind Pressure Humidity
    00:00 +1°C° 0 mm 1 mps 690 mmHg 87%
    01:00 +1°C° 0 mm 1 mps 691 mmHg 87%
    02:00 +1°C° 0 mm 1 mps 691 mmHg 88%
    03:00 +1°C° 0 mm 1 mps 692 mmHg 89%
    04:00 -2°C° 0 mm 2 mps 692 mmHg 90%
    05:00 0°C° 0 mm 1 mps 693 mmHg 91%
    06:00 0°C° 0 mm 1 mps 693 mmHg 91%
    07:00 0°C° 0 mm 1 mps 694 mmHg 91%
    08:00 +1°C° 0 mm 1 mps 695 mmHg 87%
    09:00 +2°C° 0 mm 1 mps 695 mmHg 83%
    10:00 +3°C° 0 mm 1 mps 696 mmHg 79%
    11:00 +4°C° 0 mm 1 mps 696 mmHg 76%
    12:00 +5°C° 0 mm 1 mps 696 mmHg 74%
    13:00 +6°C° 0 mm 1 mps 696 mmHg 71%
    14:00 +5°C° 0 mm 1 mps 696 mmHg 76%
    15:00 +4°C° 0 mm 1 mps 696 mmHg 80%
    16:00 +3°C° 0 mm 1 mps 696 mmHg 84%
    17:00 +3°C° 0 mm 1 mps 697 mmHg 83%
    18:00 +2°C° 0 mm 1 mps 698 mmHg 81%
    19:00 +2°C° 0 mm 1 mps 698 mmHg 80%
    20:00 +2°C° 0 mm 1 mps 699 mmHg 79%
    21:00 +2°C° 0 mm 1 mps 699 mmHg 78%
    22:00 +2°C° 0 mm 1 mps 700 mmHg 77%
    23:00 +2°C° 0 mm 1 mps 700 mmHg 77%

    15 December, Sunday

    Time Temperature Precipitation Wind Pressure Humidity
    00:00 +2°C° 0 mm 1 mps 700 mmHg 76%
    01:00 +2°C° 0 mm 1 mps 701 mmHg 76%
    02:00 +2°C° 0 mm 1 mps 701 mmHg 76%
    03:00 +2°C° 0 mm 1 mps 701 mmHg 77%
    04:00 +2°C° 0 mm 1 mps 702 mmHg 78%
    05:00 +2°C° 0 mm 1 mps 702 mmHg 77%
    06:00 +2°C° 0 mm 1 mps 702 mmHg 77%
    07:00 +1°C° 0 mm 0 mps 702 mmHg 77%
    08:00 +3°C° 0 mm 1 mps 703 mmHg 75%
    09:00 +4°C° 0 mm 1 mps 703 mmHg 73%
    10:00 +5°C° 0 mm 1 mps 703 mmHg 72%
    11:00 +6°C° 0 mm 1 mps 703 mmHg 72%
    12:00 +6°C° 0 mm 1 mps 702 mmHg 71%
    13:00 +7°C° 0 mm 1 mps 702 mmHg 71%
    14:00 +5°C° 0 mm 1 mps 702 mmHg 75%
    15:00 +4°C° 0 mm 1 mps 702 mmHg 79%
    16:00 +3°C° 0 mm 1 mps 702 mmHg 83%
    17:00 +3°C° 0 mm 1 mps 703 mmHg 82%
    18:00 +3°C° 0 mm 1 mps 703 mmHg 82%
    19:00 +3°C° 0 mm 1 mps 704 mmHg 81%
    20:00 +3°C° 0 mm 1 mps 704 mmHg 81%
    21:00 +3°C° 0 mm 1 mps 705 mmHg 81%
    22:00 +3°C° 0 mm 1 mps 706 mmHg 81%
    23:00 +4°C° 0 mm 1 mps 706 mmHg 80%
    Show more